Location: Les Jeannots
(43.2262°N, 5.5774°E)
Time: 19:17:25
(UTC+00:00)

Cosmos 1461 - Pass Details

Date: 05 July 2020
Orbit: 502 x 664 km, 65.0° (Epoch: 12 August)

Event Time Altitude Azimuth Distance (km) Brightness Sun altitude
Rises 20:06:09 0° 322° (NW) 2,982 8.7 -7.5°
Reaches altitude 10° 20:08:29 10° 318° (NW) 2,078 7.5 -7.8°
Maximum altitude 20:13:06 54° 241° (WSW) 807 3.8 -8.4°
Drops below altitude 10° 20:17:42 10° 165° (SSE) 2,072 5.2 -9.1°
Enters shadow 20:18:12 - 164° (SSE) 2,257 5.4 -9.1°
